CSN186 ZUTF-ZSOF

Flight info

Callsign CSN186
Flight time 1h 39m
Altitude 33100
Route UBRAB B213 ESPEG V154 SNF W269 OLPOV B213 WHA R343 MIDOX
Aircraft B753/M-VGDW/C

Departure

Time 2026-04-28 11:25
Airport Chengdu Tianfu International Airport (ZUTF)

Arrival

Time 2026-04-28 13:05
Airport Hefei Xinqiao International Airport (ZSOF)
Time Latitude Longitude Altitude Speed Heading
2026-04-28 11:01 30.31306 104.44680 1462 ft 0 kts 240°
2026-04-28 11:10 30.31313 104.44694 1462 ft 2 kts 240°
2026-04-28 11:10 30.31320 104.44709 1462 ft 2 kts 240°
2026-04-28 11:10 30.31327 104.44724 1462 ft 2 kts 240°
2026-04-28 11:10 30.31335 104.44740 1462 ft 2 kts 240°
2026-04-28 11:11 30.31339 104.44749 1462 ft 2 kts 240°
2026-04-28 11:11 30.31350 104.44762 1462 ft 2 kts 205°
2026-04-28 11:11 30.31364 104.44766 1462 ft 2 kts 177°
2026-04-28 11:11 30.31375 104.44764 1462 ft 0 kts 158°
2026-04-28 11:12 30.31381 104.44761 1462 ft 0 kts 155°
2026-04-28 11:14 30.31367 104.44769 1462 ft 5 kts 153°
2026-04-28 11:14 30.31305 104.44827 1462 ft 15 kts 126°
2026-04-28 11:14 30.31262 104.44944 1462 ft 16 kts 112°
2026-04-28 11:14 30.31207 104.45050 1462 ft 13 kts 154°
2026-04-28 11:15 30.31125 104.45033 1462 ft 11 kts 204°
2026-04-28 11:15 30.31054 104.44997 1462 ft 12 kts 202°
2026-04-28 11:15 30.30965 104.44955 1462 ft 15 kts 202°
2026-04-28 11:15 30.30855 104.44904 1462 ft 19 kts 202°
2026-04-28 11:16 30.30712 104.44833 1462 ft 25 kts 196°
2026-04-28 11:16 30.30545 104.44764 1462 ft 9 kts 180°
2026-04-28 11:16 30.30521 104.44776 1462 ft 3 kts 141°
2026-04-28 11:16 30.30508 104.44800 1462 ft 3 kts 108°
2026-04-28 11:17 30.30506 104.44830 1462 ft 4 kts 95°
2026-04-28 11:17 30.30501 104.44857 1462 ft 0 kts 103°
2026-04-28 11:18 30.30501 104.44862 1462 ft 1 kts 85°
2026-04-28 11:18 30.30505 104.44869 1462 ft 1 kts 50°
2026-04-28 11:18 30.30516 104.44873 1462 ft 3 kts
2026-04-28 11:19 30.30556 104.44864 1462 ft 8 kts 358°
2026-04-28 11:19 30.30625 104.44886 1462 ft 13 kts 21°
2026-04-28 11:19 30.30740 104.44941 1462 ft 22 kts 22°
2026-04-28 11:19 30.30923 104.45029 1462 ft 33 kts 21°
2026-04-28 11:20 30.31114 104.45119 1462 ft 27 kts 22°
2026-04-28 11:20 30.31282 104.45199 1462 ft 25 kts 21°
2026-04-28 11:20 30.31436 104.45271 1462 ft 22 kts 24°
2026-04-28 11:20 30.31445 104.45404 1462 ft 17 kts 112°
2026-04-28 11:21 30.31469 104.45518 1462 ft 13 kts 62°
2026-04-28 11:21 30.31469 104.45554 1462 ft 0 kts 102°
2026-04-28 11:22 30.31465 104.45573 1462 ft 4 kts 103°
2026-04-28 11:22 30.31452 104.45615 1462 ft 9 kts 111°
2026-04-28 11:22 30.31415 104.45726 1462 ft 19 kts 114°
2026-04-28 11:23 30.31354 104.45895 1462 ft 20 kts 98°
2026-04-28 11:23 30.31425 104.45962 1462 ft 12 kts 23°
2026-04-28 11:23 30.31489 104.46014 1462 ft 10 kts 59°
2026-04-28 11:23 30.31480 104.46085 1462 ft 8 kts 111°
2026-04-28 11:24 30.31452 104.46165 1462 ft 23 kts 112°
2026-04-28 11:24 30.31323 104.46530 1462 ft 75 kts 112°
2026-04-28 11:24 30.31058 104.47276 1463 ft 125 kts 113°
2026-04-28 11:24 30.30667 104.48380 1463 ft 170 kts 113°
2026-04-28 11:25 30.30213 104.49765 1663 ft 190 kts 109°
2026-04-28 11:25 30.29819 104.51229 2135 ft 192 kts 107°
2026-04-28 11:25 30.29461 104.52698 2648 ft 192 kts 103°
2026-04-28 11:25 30.29543 104.54244 2988 ft 199 kts 65°
2026-04-28 11:26 30.30320 104.55492 3594 ft 191 kts 43°
2026-04-28 11:26 30.31284 104.56524 4068 ft 188 kts 40°
2026-04-28 11:26 30.32280 104.57576 4159 ft 205 kts 41°
2026-04-28 11:26 30.33379 104.58802 4163 ft 232 kts 43°
2026-04-28 11:27 30.34548 104.60153 4617 ft 237 kts 44°
2026-04-28 11:27 30.35717 104.61524 5028 ft 249 kts 44°
2026-04-28 11:27 30.36973 104.63009 5353 ft 265 kts 44°
2026-04-28 11:27 30.38223 104.64497 6200 ft 260 kts 44°
2026-04-28 11:28 30.39531 104.66054 6544 ft 277 kts 44°
2026-04-28 11:28 30.40872 104.67656 7256 ft 278 kts 44°
2026-04-28 11:28 30.42211 104.69257 8008 ft 278 kts 44°
2026-04-28 11:28 30.43555 104.70864 8602 ft 283 kts 44°
2026-04-28 11:29 30.44902 104.72475 9415 ft 280 kts 44°
2026-04-28 11:29 30.46268 104.74110 10054 ft 283 kts 45°
2026-04-28 11:29 30.47636 104.75748 10582 ft 290 kts 45°
2026-04-28 11:29 30.49113 104.77517 10666 ft 315 kts 45°
2026-04-28 11:30 30.50683 104.79398 10711 ft 340 kts 45°
2026-04-28 11:30 30.54171 104.83337 12000 ft 352 kts 41°
2026-04-28 11:30 30.56017 104.85230 12635 ft 358 kts 41°
2026-04-28 11:31 30.57898 104.87168 13406 ft 360 kts 41°
2026-04-28 11:31 30.59760 104.89086 14094 ft 364 kts 41°
2026-04-28 11:31 30.61665 104.91048 14810 ft 367 kts 41°
2026-04-28 11:31 30.63571 104.93012 15484 ft 370 kts 43°
2026-04-28 11:32 30.65533 104.95031 15728 ft 386 kts 44°
2026-04-28 11:32 30.67515 104.97080 16409 ft 388 kts 44°
2026-04-28 11:32 30.69547 104.99182 16852 ft 397 kts 44°
2026-04-28 11:32 30.71633 105.01340 17393 ft 403 kts 43°
2026-04-28 11:33 30.73627 105.03620 17873 ft 408 kts 53°
2026-04-28 11:33 30.75181 105.06420 18360 ft 411 kts 65°
2026-04-28 11:33 30.76242 105.09512 18826 ft 416 kts 75°
2026-04-28 11:33 30.77010 105.12743 19308 ft 421 kts 75°
2026-04-28 11:34 30.77813 105.16041 19869 ft 425 kts 75°
2026-04-28 11:34 30.78631 105.19334 20388 ft 429 kts 75°
2026-04-28 11:34 30.79464 105.22666 20912 ft 432 kts 75°
2026-04-28 11:34 30.80313 105.26051 21415 ft 436 kts 75°
2026-04-28 11:35 30.81173 105.29474 21915 ft 440 kts 75°
2026-04-28 11:35 30.82026 105.32874 22389 ft 444 kts 75°
2026-04-28 11:35 30.82891 105.36324 22862 ft 448 kts 75°
2026-04-28 11:35 30.83773 105.39841 23321 ft 451 kts 74°
2026-04-28 11:36 30.84619 105.43362 23776 ft 455 kts 77°
2026-04-28 11:36 30.85373 105.46918 24203 ft 458 kts 77°
2026-04-28 11:36 30.86138 105.50520 24629 ft 462 kts 77°
2026-04-28 11:36 30.86915 105.54170 25068 ft 465 kts 77°
2026-04-28 11:37 30.87691 105.57819 25463 ft 469 kts 77°
2026-04-28 11:37 30.88477 105.61517 25877 ft 472 kts 77°
2026-04-28 11:37 30.89268 105.65237 26247 ft 476 kts 77°
2026-04-28 11:37 30.90060 105.68973 26635 ft 479 kts 77°
2026-04-28 11:38 30.90855 105.72723 27001 ft 482 kts 78°
2026-04-28 11:38 30.91663 105.76547 27359 ft 485 kts 78°
2026-04-28 11:38 30.92466 105.80351 27701 ft 489 kts 78°
2026-04-28 11:38 30.93277 105.84199 28049 ft 492 kts 78°
2026-04-28 11:39 30.94099 105.88103 28382 ft 495 kts 78°
2026-04-28 11:39 30.94918 105.92004 28691 ft 498 kts 78°
2026-04-28 11:39 30.95736 105.95906 29010 ft 501 kts 78°
2026-04-28 11:39 30.96514 105.99891 29306 ft 504 kts 83°
2026-04-28 11:40 30.96910 106.03926 29615 ft 504 kts 88°
2026-04-28 11:40 30.97169 106.08006 29877 ft 508 kts 88°
2026-04-28 11:40 30.97426 106.12106 30175 ft 511 kts 89°
2026-04-28 11:40 30.97677 106.16234 30441 ft 514 kts 89°
2026-04-28 11:41 30.97926 106.20425 30768 ft 515 kts 89°
2026-04-28 11:41 30.98171 106.24590 31123 ft 516 kts 88°
2026-04-28 11:41 30.98413 106.28745 31435 ft 517 kts 88°
2026-04-28 11:41 30.98656 106.32951 31782 ft 518 kts 88°
2026-04-28 11:42 30.98872 106.36724 32048 ft 519 kts 88°
2026-04-28 11:42 30.99110 106.40894 32378 ft 519 kts 88°
2026-04-28 11:42 30.99348 106.45103 32681 ft 520 kts 88°
2026-04-28 11:42 30.99583 106.49277 32965 ft 521 kts 88°
2026-04-28 11:43 30.99821 106.53529 33183 ft 523 kts 88°
2026-04-28 11:43 31.00054 106.57737 33181 ft 525 kts 88°
2026-04-28 11:43 31.00525 106.66248 33178 ft 521 kts 88°
2026-04-28 11:44 31.00981 106.74637 33170 ft 522 kts 87°
2026-04-28 11:44 31.01438 106.83090 33178 ft 525 kts 88°
2026-04-28 11:45 31.01889 106.91576 33174 ft 521 kts 88°
2026-04-28 11:45 31.02329 106.99973 33175 ft 520 kts 88°
2026-04-28 11:46 31.02764 107.08375 33176 ft 519 kts 88°
2026-04-28 11:46 31.03193 107.16747 33178 ft 520 kts 88°
2026-04-28 11:47 31.03616 107.25131 33178 ft 519 kts 88°
2026-04-28 11:47 31.04038 107.33572 33179 ft 520 kts 88°
2026-04-28 11:48 31.04449 107.41939 33181 ft 521 kts 88°
2026-04-28 11:48 31.04741 107.50359 33181 ft 520 kts 89°
2026-04-28 11:49 31.04932 107.58810 33182 ft 519 kts 90°
2026-04-28 11:49 31.05102 107.67213 33175 ft 520 kts 90°
2026-04-28 11:50 31.05265 107.75585 33174 ft 520 kts 90°
2026-04-28 11:50 31.05422 107.83990 33174 ft 519 kts 90°
2026-04-28 11:51 31.05572 107.92364 33175 ft 520 kts 90°
2026-04-28 11:51 31.05719 108.00822 33176 ft 519 kts 90°
2026-04-28 11:52 31.05860 108.09252 33177 ft 519 kts 90°
2026-04-28 11:52 31.05995 108.17657 33178 ft 519 kts 90°
2026-04-28 11:53 31.06123 108.26013 33179 ft 520 kts 90°
2026-04-28 11:53 31.06248 108.34457 33180 ft 520 kts 90°
2026-04-28 11:54 31.06367 108.42866 33181 ft 519 kts 90°
2026-04-28 11:54 31.06480 108.51285 33182 ft 519 kts 90°
2026-04-28 11:55 31.06588 108.59724 33182 ft 519 kts 90°
2026-04-28 11:55 31.06690 108.68122 33173 ft 520 kts 91°
2026-04-28 11:56 31.06788 108.76554 33173 ft 519 kts 91°
2026-04-28 11:56 31.06879 108.84952 33174 ft 519 kts 91°
2026-04-28 11:57 31.06965 108.93364 33176 ft 519 kts 91°
2026-04-28 11:57 31.07045 109.01774 33176 ft 518 kts 91°
2026-04-28 11:58 31.07119 109.10152 33178 ft 516 kts 90°
2026-04-28 11:58 31.07189 109.18493 33178 ft 514 kts 90°
2026-04-28 11:59 31.07252 109.26805 33178 ft 514 kts 90°
2026-04-28 11:59 31.07310 109.35093 33178 ft 513 kts 90°
2026-04-28 12:00 31.07363 109.43434 33182 ft 514 kts 90°
2026-04-28 12:00 31.07411 109.51767 33177 ft 514 kts 90°
2026-04-28 12:01 31.07453 109.60058 33179 ft 513 kts 90°
2026-04-28 12:01 31.07389 109.68391 33176 ft 512 kts 97°
2026-04-28 12:02 31.05867 109.76460 33180 ft 508 kts 110°
2026-04-28 12:02 31.03734 109.84316 33172 ft 507 kts 110°
2026-04-28 12:03 31.01547 109.92127 33175 ft 506 kts 111°
2026-04-28 12:03 30.99350 109.99880 33174 ft 505 kts 110°
2026-04-28 12:04 30.97145 110.07618 33175 ft 505 kts 110°
2026-04-28 12:04 30.94924 110.15385 33175 ft 502 kts 110°
2026-04-28 12:05 30.92729 110.23038 33172 ft 502 kts 110°
2026-04-28 12:05 30.90517 110.30729 33164 ft 499 kts 110°
2026-04-28 12:06 30.88318 110.38358 33156 ft 498 kts 109°
2026-04-28 12:06 30.86121 110.45959 33141 ft 498 kts 109°
2026-04-28 12:07 30.83911 110.53589 33136 ft 497 kts 109°
2026-04-28 12:07 30.81697 110.61211 33140 ft 498 kts 109°
2026-04-28 12:08 30.79482 110.68818 33145 ft 497 kts 110°
2026-04-28 12:08 30.77259 110.76434 33144 ft 498 kts 110°
2026-04-28 12:09 30.75030 110.84052 33146 ft 497 kts 110°
2026-04-28 12:09 30.72802 110.91647 33146 ft 498 kts 110°
2026-04-28 12:10 30.70574 110.99227 33184 ft 496 kts 110°
2026-04-28 12:10 30.68337 111.06813 33180 ft 495 kts 110°
2026-04-28 12:11 30.66107 111.14363 33183 ft 495 kts 110°
2026-04-28 12:11 30.63916 111.21906 33185 ft 495 kts 106°
2026-04-28 12:12 30.63066 111.29824 33191 ft 497 kts 88°
2026-04-28 12:12 30.63915 111.37735 33186 ft 497 kts 81°
2026-04-28 12:13 30.64958 111.45691 33183 ft 497 kts 81°
2026-04-28 12:13 30.65518 111.53661 33184 ft 497 kts 86°
2026-04-28 12:14 30.65942 111.61668 33185 ft 497 kts 86°
2026-04-28 12:14 30.66356 111.69675 33181 ft 497 kts 87°
2026-04-28 12:15 30.66766 111.77689 33180 ft 497 kts 87°
2026-04-28 12:15 30.67170 111.85683 33180 ft 497 kts 87°
2026-04-28 12:16 30.67570 111.93713 33179 ft 497 kts 87°
2026-04-28 12:16 30.68071 112.01725 33182 ft 496 kts 85°
2026-04-28 12:17 30.68619 112.09676 33181 ft 496 kts 85°
2026-04-28 12:17 30.69166 112.17711 33181 ft 497 kts 85°
2026-04-28 12:18 30.69703 112.25674 33182 ft 497 kts 85°
2026-04-28 12:18 30.70239 112.33712 33184 ft 497 kts 85°
2026-04-28 12:19 30.70767 112.41696 33184 ft 497 kts 85°
2026-04-28 12:19 30.71288 112.49651 33184 ft 497 kts 85°
2026-04-28 12:20 30.71806 112.57634 33187 ft 497 kts 85°
2026-04-28 12:20 30.72321 112.65637 33187 ft 497 kts 86°
2026-04-28 12:21 30.72831 112.73651 33181 ft 496 kts 86°
2026-04-28 12:21 30.73334 112.81625 33183 ft 497 kts 86°
2026-04-28 12:22 30.73833 112.89619 33180 ft 496 kts 86°
2026-04-28 12:22 30.74330 112.97649 33181 ft 496 kts 86°
2026-04-28 12:23 30.74816 113.05592 33185 ft 495 kts 86°
2026-04-28 12:23 30.75299 113.13586 33181 ft 495 kts 86°
2026-04-28 12:24 30.75538 113.21577 33183 ft 495 kts 89°
2026-04-28 12:24 30.75742 113.29566 33182 ft 495 kts 89°
2026-04-28 12:25 30.75943 113.37543 33183 ft 495 kts 89°
2026-04-28 12:25 30.76141 113.45528 33185 ft 495 kts 89°
2026-04-28 12:26 30.76334 113.53551 33185 ft 495 kts 89°
2026-04-28 12:26 30.76523 113.61544 33187 ft 495 kts 89°
2026-04-28 12:27 30.76707 113.69541 33174 ft 495 kts 89°
2026-04-28 12:27 30.76886 113.77528 33172 ft 494 kts 89°
2026-04-28 12:28 30.77059 113.85495 33173 ft 494 kts 89°
2026-04-28 12:28 30.77227 113.93476 33174 ft 495 kts 89°
2026-04-28 12:29 30.77552 114.05447 33174 ft 495 kts 88°
2026-04-28 12:30 30.77886 114.13432 33173 ft 494 kts 88°
2026-04-28 12:30 30.78740 114.21316 33183 ft 495 kts 74°
2026-04-28 12:31 30.81058 114.28859 33174 ft 495 kts 69°
2026-04-28 12:31 30.83444 114.36341 33176 ft 495 kts 69°
2026-04-28 12:32 30.85841 114.43816 33175 ft 495 kts 69°
2026-04-28 12:32 30.88266 114.51307 33178 ft 495 kts 69°
2026-04-28 12:33 30.90711 114.58839 33177 ft 496 kts 69°
2026-04-28 12:33 30.93154 114.66383 33175 ft 499 kts 69°
2026-04-28 12:34 30.95606 114.73971 33174 ft 501 kts 69°
2026-04-28 12:34 30.98059 114.81578 33173 ft 502 kts 69°
2026-04-28 12:35 31.00517 114.89219 33175 ft 505 kts 69°
2026-04-28 12:35 31.01734 114.93009 33144 ft 494 kts 69°
2026-04-28 12:35 31.02927 114.96732 32909 ft 497 kts 69°
2026-04-28 12:35 31.04127 115.00479 32656 ft 488 kts 69°
2026-04-28 12:36 31.05302 115.04152 32405 ft 483 kts 69°
2026-04-28 12:36 31.06471 115.07812 32159 ft 483 kts 69°
2026-04-28 12:36 31.07635 115.11459 31915 ft 485 kts 69°
2026-04-28 12:36 31.08816 115.15163 31672 ft 485 kts 69°
2026-04-28 12:37 31.09976 115.18805 31432 ft 485 kts 69°
2026-04-28 12:37 31.11144 115.22482 31185 ft 485 kts 69°
2026-04-28 12:37 31.12304 115.26162 30938 ft 484 kts 69°
2026-04-28 12:37 31.13488 115.29880 30689 ft 485 kts 69°
2026-04-28 12:38 31.14671 115.33517 30445 ft 485 kts 69°
2026-04-28 12:38 31.15865 115.37199 30199 ft 485 kts 69°
2026-04-28 12:38 31.17057 115.40882 29953 ft 486 kts 69°
2026-04-28 12:38 31.18249 115.44566 29564 ft 487 kts 69°
2026-04-28 12:39 31.19439 115.48248 29084 ft 481 kts 69°
2026-04-28 12:39 31.20593 115.51826 28606 ft 475 kts 69°
2026-04-28 12:39 31.21747 115.55407 28119 ft 470 kts 69°
2026-04-28 12:39 31.22892 115.58964 27628 ft 465 kts 69°
2026-04-28 12:40 31.24024 115.62485 27135 ft 461 kts 69°
2026-04-28 12:40 31.25145 115.65974 26639 ft 457 kts 70°
2026-04-28 12:40 31.26238 115.69381 26146 ft 453 kts 70°
2026-04-28 12:40 31.27347 115.72841 25638 ft 448 kts 70°
2026-04-28 12:41 31.28424 115.76204 25136 ft 444 kts 70°
2026-04-28 12:41 31.29501 115.79574 24644 ft 440 kts 70°
2026-04-28 12:41 31.30553 115.82870 24131 ft 436 kts 70°
2026-04-28 12:41 31.31611 115.86186 23632 ft 432 kts 70°
2026-04-28 12:42 31.32650 115.89420 23291 ft 424 kts 69°
2026-04-28 12:42 31.33705 115.92640 23280 ft 424 kts 69°
2026-04-28 12:42 31.34768 115.95895 22840 ft 436 kts 69°
2026-04-28 12:42 31.35847 115.99201 22286 ft 432 kts 69°
2026-04-28 12:43 31.36919 116.02488 21733 ft 429 kts 69°
2026-04-28 12:43 31.37960 116.05684 21195 ft 426 kts 69°
2026-04-28 12:43 31.39008 116.08903 20651 ft 422 kts 69°
2026-04-28 12:43 31.40046 116.12096 20111 ft 419 kts 69°
2026-04-28 12:44 31.41082 116.15286 19571 ft 416 kts 69°
2026-04-28 12:44 31.42101 116.18427 19041 ft 412 kts 69°
2026-04-28 12:44 31.43108 116.21535 18520 ft 409 kts 69°
2026-04-28 12:44 31.44106 116.24618 18006 ft 405 kts 69°
2026-04-28 12:45 31.45096 116.27677 17501 ft 401 kts 69°
2026-04-28 12:45 31.46072 116.30697 17006 ft 397 kts 69°
2026-04-28 12:45 31.47043 116.33704 16518 ft 393 kts 69°
2026-04-28 12:45 31.47996 116.36659 16043 ft 389 kts 69°
2026-04-28 12:46 31.48949 116.39616 15573 ft 385 kts 69°
2026-04-28 12:46 31.49877 116.42497 15121 ft 380 kts 69°
2026-04-28 12:46 31.50812 116.45403 14672 ft 376 kts 69°
2026-04-28 12:46 31.51719 116.48222 14244 ft 371 kts 69°
2026-04-28 12:47 31.52617 116.51020 13826 ft 362 kts 69°
2026-04-28 12:47 31.53498 116.53765 13449 ft 358 kts 69°
2026-04-28 12:47 31.54364 116.56467 13081 ft 354 kts 69°
2026-04-28 12:47 31.55235 116.59185 12714 ft 352 kts 69°
2026-04-28 12:48 31.56087 116.61847 12349 ft 350 kts 69°
2026-04-28 12:48 31.56940 116.64516 11976 ft 348 kts 69°
2026-04-28 12:48 31.57776 116.67130 11607 ft 345 kts 70°
2026-04-28 12:48 31.58616 116.69759 11234 ft 344 kts 70°
2026-04-28 12:49 31.59453 116.72384 10857 ft 342 kts 70°
2026-04-28 12:49 31.60287 116.74999 10490 ft 339 kts 70°
2026-04-28 12:49 31.61085 116.77505 10454 ft 324 kts 70°
2026-04-28 12:49 31.61853 116.79918 10439 ft 309 kts 70°
2026-04-28 12:50 31.62589 116.82233 10417 ft 292 kts 70°
2026-04-28 12:50 31.63299 116.84469 10260 ft 300 kts 70°
2026-04-28 12:50 31.64022 116.86746 10230 ft 289 kts 70°
2026-04-28 12:50 31.64709 116.88908 9955 ft 286 kts 70°
2026-04-28 12:51 31.65405 116.91104 9594 ft 286 kts 70°
2026-04-28 12:51 31.66098 116.93290 9227 ft 286 kts 70°
2026-04-28 12:51 31.66783 116.95452 8844 ft 282 kts 70°
2026-04-28 12:51 31.67455 116.97578 8596 ft 272 kts 70°
2026-04-28 12:52 31.68218 116.99594 8400 ft 271 kts 55°
2026-04-28 12:52 31.69576 117.01062 8175 ft 269 kts 27°
2026-04-28 12:52 31.71360 117.01617 7974 ft 270 kts 360°
2026-04-28 12:52 31.73186 117.01124 7777 ft 270 kts 332°
2026-04-28 12:53 31.74704 116.99860 7574 ft 270 kts 322°
2026-04-28 12:53 31.76225 116.98582 7345 ft 269 kts 327°
2026-04-28 12:53 31.77782 116.97412 7128 ft 268 kts 328°
2026-04-28 12:53 31.78849 116.96645 6985 ft 267 kts 329°
2026-04-28 12:54 31.80969 116.95159 6710 ft 266 kts 329°
2026-04-28 12:54 31.82538 116.94080 6515 ft 265 kts 330°
2026-04-28 12:54 31.84134 116.92990 6321 ft 265 kts 330°
2026-04-28 12:54 31.85736 116.91901 6130 ft 264 kts 330°
2026-04-28 12:55 31.87299 116.90838 5948 ft 263 kts 330°
2026-04-28 12:55 31.88882 116.89764 5767 ft 262 kts 330°
2026-04-28 12:55 31.90468 116.88686 5587 ft 262 kts 330°
2026-04-28 12:55 31.92024 116.87631 5419 ft 259 kts 330°
2026-04-28 12:56 31.93585 116.86571 5237 ft 257 kts 330°
2026-04-28 12:56 31.95123 116.85526 5068 ft 257 kts 330°
2026-04-28 12:56 31.96658 116.84483 4875 ft 257 kts 330°
2026-04-28 12:56 31.98215 116.83427 4615 ft 254 kts 330°
2026-04-28 12:57 31.99742 116.82391 4374 ft 254 kts 330°
2026-04-28 12:57 32.01263 116.81359 4134 ft 253 kts 330°
2026-04-28 12:57 32.02773 116.80333 3899 ft 252 kts 330°
2026-04-28 12:57 32.04302 116.79294 3661 ft 251 kts 330°
2026-04-28 12:58 32.05811 116.78267 3424 ft 248 kts 330°
2026-04-28 12:58 32.07253 116.77288 3351 ft 231 kts 330°
2026-04-28 12:58 32.08618 116.76374 3296 ft 224 kts 335°
2026-04-28 12:58 32.10111 116.76046 3146 ft 216 kts
2026-04-28 12:59 32.11443 116.76760 3151 ft 217 kts 44°
2026-04-28 12:59 32.12215 116.78239 3026 ft 207 kts 79°
2026-04-28 12:59 32.12339 116.79853 2996 ft 193 kts 87°
2026-04-28 12:59 32.12478 116.81377 2998 ft 176 kts 82°
2026-04-28 13:00 32.12670 116.82777 3021 ft 172 kts 81°
2026-04-28 13:00 32.12889 116.84161 3016 ft 173 kts 79°
2026-04-28 13:00 32.13128 116.85536 2997 ft 171 kts 79°
2026-04-28 13:00 32.13258 116.86933 2988 ft 173 kts 99°
2026-04-28 13:01 32.12824 116.88199 2891 ft 176 kts 129°
2026-04-28 13:01 32.11839 116.89005 2694 ft 173 kts 153°
2026-04-28 13:01 32.10760 116.89653 2472 ft 172 kts 151°
2026-04-28 13:01 32.09719 116.90325 2263 ft 171 kts 150°
2026-04-28 13:02 32.08685 116.91008 2066 ft 171 kts 149°
2026-04-28 13:02 32.07653 116.91698 1894 ft 172 kts 149°
2026-04-28 13:02 32.06622 116.92394 1668 ft 166 kts 149°
2026-04-28 13:02 32.05646 116.93053 1457 ft 159 kts 149°
2026-04-28 13:03 32.04727 116.93676 1263 ft 152 kts 149°
2026-04-28 13:03 32.03807 116.94299 1065 ft 154 kts 149°
2026-04-28 13:03 32.02908 116.94908 848 ft 144 kts 148°
2026-04-28 13:03 32.02052 116.95476 621 ft 138 kts 149°
2026-04-28 13:04 32.01220 116.96018 525 ft 138 kts 148°
2026-04-28 13:04 32.00391 116.96594 340 ft 138 kts 147°
2026-04-28 13:04 31.99582 116.97156 224 ft 131 kts 147°
2026-04-28 13:04 31.98893 116.97643 219 ft 83 kts 150°
2026-04-28 13:05 31.98640 116.97793 219 ft 20 kts 152°
2026-04-28 13:05 31.98512 116.97875 219 ft 21 kts 151°
2026-04-28 13:05 31.98373 116.97918 219 ft 20 kts 177°
2026-04-28 13:05 31.98250 116.97920 219 ft 4 kts 191°
2026-04-28 13:06 31.98241 116.97916 219 ft 5 kts 203°
2026-04-28 13:06 31.98195 116.97865 219 ft 8 kts 262°
2026-04-28 13:06 31.98228 116.97831 219 ft 7 kts 337°
2026-04-28 13:06 31.98298 116.97792 219 ft 15 kts 335°
2026-04-28 13:07 31.98424 116.97705 219 ft 25 kts 330°
2026-04-28 13:07 31.98585 116.97598 219 ft 27 kts 329°
2026-04-28 13:07 31.98744 116.97491 219 ft 24 kts 330°
2026-04-28 13:07 31.98840 116.97424 219 ft 23 kts 331°
2026-04-28 13:08 31.99013 116.97308 219 ft 20 kts 330°
2026-04-28 13:08 31.99121 116.97213 219 ft 19 kts 307°
2026-04-28 13:08 31.99149 116.97062 219 ft 18 kts 265°
2026-04-28 13:08 31.99132 116.96921 219 ft 16 kts 261°
2026-04-28 13:09 31.99129 116.96803 219 ft 11 kts 263°
2026-04-28 13:09 31.99110 116.96772 219 ft 2 kts 194°
2026-04-28 13:09 31.99084 116.96767 219 ft 4 kts 187°
2026-04-28 13:09 31.99062 116.96764 219 ft 0 kts 187°
2026-04-28 13:10 31.99057 116.96764 219 ft 0 kts 187°
2026-04-28 13:29 31.99063 116.96764 219 ft 2 kts 187°
2026-04-28 13:29 31.99078 116.96767 219 ft 2 kts 187°
2026-04-28 13:30 31.99093 116.96769 219 ft 2 kts 187°
2026-04-28 13:30 31.99107 116.96771 219 ft 1 kts 187°
2026-04-28 13:30 31.99117 116.96773 219 ft 2 kts 174°
2026-04-28 13:30 31.99130 116.96766 219 ft 2 kts 137°
2026-04-28 13:31 31.99141 116.96743 219 ft 0 kts 96°